Tracking 31027 objects as of 19-Jul-2025
HD Live streaming from Space Station
objects crossing your sky now

STARLINK-3716

Track STARLINK-3716 now!
10-day predictions
STARLINK-3716 is classified as:


NORAD ID: 52092
Int'l Code: 2022-029E
Perigee: 545.9 km
Apogee: 547.8 km
Inclination: 53.2 °
Period: 95.4 minutes
Semi major axis: 6917 km
RCS: Unknown
Launch date: March 19, 2022
Source: United States (US)
Launch site: AIR FORCE EASTERN TEST RANGE (AFETR)
Your satellite tracking list
ATLAS 5 CENTAUR DEB
Track 1 satellite(s)




NASA's NSSDC Master Catalog

Two Line Element Set (TLE):
1 52092U 22029E   25199.32695375 -.00001112  00000-0 -51762-4 0  9991
2 52092  53.2181  61.2129 0001349  85.9927 274.1219 15.08842387185273
Source of the keplerian elements: AFSPC